CW9688 Weather Reports


time (UTC)temp
C
wind
direction
speed
KPH
gust
KPH
rain 1hr
cm
rain 24hr
cm
rain mn
cm
humidity
%
barometer
mb
20260507191804 20 277 11.3 25.7 0.00 0.00 0.00 28 1011.3
20260507190803 20 271 9.7 32.2 0.00 0.00 0.00 29 1011.3
20260507185804 19 300 11.3 22.5 0.00 0.00 0.00 31 1011.3
20260507184804 18 247 11.3 20.9 0.00 0.00 0.00 32 1011.3
20260507183804 17 249 9.7 29.0 0.00 0.00 0.00 33 1011.3
20260507182804 17 302 9.7 25.7 0.00 0.00 0.00 34 1011.3
20260507182306 17 297 12.9 22.5 0.00 0.00 0.00 33 1011.3
20260507181804 17 256 11.3 25.7 0.00 0.00 0.00 34 1011.3
20260507180804 17 255 14.5 24.1 0.00 0.00 0.00 32 1011.3
20260507180304 17 264 16.1 27.4 0.00 0.00 0.00 33 1011.3
20260507175306 17 246 14.5 25.7 0.00 0.00 0.00 32 1011.3
20260507174304 17 247 11.3 24.1 0.00 0.03 0.00 34 1011.3
20260507173804 16 214 8.0 19.3 0.00 0.03 0.00 36 1011.3
20260507172307 16 164 4.8 11.3 0.00 0.03 0.00 36 1011.3
20260507171804 17 194 4.8 12.9 0.00 0.03 0.00 36 1011.3
20260507171303 16 239 4.8 11.3 0.00 0.03 0.00 35 1011.3
20260507165803 16 199 6.4 11.3 0.00 0.05 0.00 36 1011.3
20260507164804 16 224 6.4 19.3 0.00 0.05 0.00 36 1011.3
20260507163304 16 261 11.3 24.1 0.00 0.08 0.00 35 1011.3
20260507161304 16 222 8.0 19.3 0.00 0.08 0.00 40 1011.3
20260507160804 16 187 9.7 20.9 0.00 0.10 0.00 41 1011.3
20260507160304 15 214 8.0 19.3 0.00 0.10 0.00 42 1011.3
20260507155804 15 199 8.0 14.5 0.00 0.10 0.00 45 1011.3
20260507155306 14 202 6.4 14.5 0.00 0.10 0.00 44 1011.3
20260507153303 12 184 9.7 16.1 0.00 0.13 0.00 45 1011.3
20260507151804 11 194 4.8 8.0 0.00 0.15 0.00 47 1011.3
20260507145306 10 190 8.0 12.9 0.00 0.18 0.00 50 1011.3
20260507143804 9 184 9.7 16.1 0.00 0.18 0.00 54 1011.3
20260507143305 9 186 9.7 19.3 0.00 0.18 0.00 54 1011.3
20260507142306 8 179 9.7 14.5 0.00 0.18 0.00 56 1011.3
20260507141305 8 154 4.8 9.7 0.00 0.18 0.00 56 1011.3
20260507140805 8 178 8.0 11.3 0.00 0.18 0.00 56 1011.3
20260507140305 7 183 8.0 9.7 0.00 0.18 0.00 58 1011.3
20260507135306 7 184 6.4 12.9 0.00 0.18 0.00 60 1011.3
20260507134804 6 169 9.7 12.9 0.00 0.18 0.00 60 1011.3
20260507134305 6 264 8.0 11.3 0.00 0.18 0.00 61 1011.3
20260507131305 5 185 4.8 11.3 0.00 0.18 0.00 66 1011.3
20260507130805 4 195 4.8 12.9 0.00 0.18 0.00 66 1011.3
20260507125805 3 189 3.2 9.7 0.00 0.18 0.00 68 1011.3
20260507125306 3 190 4.8 8.0 0.00 0.18 0.00 68 1011.3
20260507124805 3 197 4.8 9.7 0.00 0.18 0.00 68 1011.3
20260507122805 2 200 3.2 4.8 0.00 0.18 0.00 70 1011.3
20260507121305 2 185 8.0 11.3 0.00 0.18 0.00 70 1011.3
20260507120804 2 197 3.2 11.3 0.00 0.18 0.00 70 1011.3
20260507114806 2 180 4.8 9.7 0.00 0.18 0.00 69 1011.3
20260507114305 2 182 4.8 9.7 0.00 0.18 0.00 69 1011.3
20260507113304 2 198 8.0 14.5 0.00 0.18 0.00 68 1011.3
20260507112805 2 201 8.0 12.9 0.00 0.18 0.00 68 1011.3
20260507112307 2 192 8.0 14.5 0.00 0.18 0.00 68 1011.3
20260507105805 2 192 11.3 22.5 0.00 0.18 0.00 69 1011.3
20260507104805 2 190 8.0 11.3 0.00 0.18 0.00 70 1011.3
20260507104304 2 202 4.8 11.3 0.00 0.18 0.00 71 1011.3
20260507102306 2 181 8.0 12.9 0.00 0.18 0.00 69 1011.3
20260507101805 2 188 9.7 16.1 0.00 0.18 0.00 68 1011.3
20260507095805 3 185 11.3 19.3 0.00 0.18 0.00 68 1011.3
20260507094805 2 200 8.0 16.1 0.00 0.18 0.00 68 1011.3
20260507094305 2 172 9.7 16.1 0.00 0.18 0.00 70 1011.3
20260507092307 2 217 6.4 11.3 0.00 0.18 0.00 71 1011.3
20260507091805 2 211 8.0 12.9 0.00 0.18 0.00 71 1011.3
20260507090805 2 181 9.7 16.1 0.00 0.18 0.00 72 1011.3
20260507085805 2 188 9.7 19.3 0.00 0.18 0.00 73 1011.3
20260507085306 2 187 9.7 16.1 0.00 0.18 0.00 74 1011.3
20260507084805 2 197 8.0 16.1 0.00 0.20 0.00 75 1011.3
20260507083305 1 186 9.7 16.1 0.00 0.20 0.00 77 1011.3
20260507082805 1 194 8.0 14.5 0.00 0.20 0.00 78 1011.3
20260507082306 1 181 8.0 14.5 0.00 0.20 0.00 78 1011.3
20260507081306 1 193 8.0 11.3 0.00 0.20 0.00 79 1011.3
20260507080805 1 182 6.4 12.9 0.00 0.20 0.00 79 1011.3
20260507075805 1 187 8.0 12.9 0.00 0.20 0.00 79 1011.3
20260507073805 1 189 8.0 16.1 0.00 0.23 0.00 80 1011.3
20260507073305 1 185 9.7 14.5 0.00 0.23 0.00 80 1011.3
20260507071805 1 184 9.7 19.3 0.00 0.25 0.00 82 1011.3
20260507071304 1 179 8.0 14.5 0.00 0.28 0.00 83 1011.3
20260507064805 1 182 6.4 11.3 0.00 0.30 0.00 84 1011.8
20260507064305 1 178 8.0 12.9 0.00 0.30 0.00 84 1011.8
20260507063804 1 182 8.0 12.9 0.00 0.30 0.00 84 1011.8
20260507063305 1 174 8.0 12.9 0.00 0.33 0.00 84 1011.8
20260507062805 1 185 8.0 12.9 0.00 0.33 0.00 84 1011.8
20260507062306 1 183 8.0 12.9 0.00 0.33 0.00 84 1011.8
20260507061305 1 200 8.0 11.3 0.00 0.33 0.00 85 1011.8
20260507060816 1 189 6.4 11.3 0.00 0.33 0.00 85 1011.8
20260507052804 0 182 6.4 11.3 0.00 0.36 0.33 91 1011.8
20260507052306 0 191 3.2 4.8 0.00 0.36 0.33 91 1011.8
20260507051305 0 176 3.2 4.8 0.00 0.41 0.33 91 1011.8
20260507045804 0 176 0.0 0.0 0.00 0.43 0.33 91 1011.8
20260507045306 0 176 0.0 1.6 0.00 0.43 0.33 90 1011.8
20260507044805 0 176 0.0 1.6 0.00 0.46 0.33 90 1011.8
20260507043805 0 176 0.0 0.0 0.00 0.46 0.33 90 1011.8
20260507043304 0 176 0.0 0.0 0.00 0.46 0.33 90 1011.8
20260507042307 0 176 1.6 3.2 0.00 0.48 0.33 90 1011.8
20260507041305 0 176 1.6 3.2 0.00 0.51 0.33 90 1011.8
20260507040305 0 176 1.6 3.2 0.00 0.51 0.33 89 1011.8
20260507035306 0 176 0.0 0.0 0.00 0.53 0.33 89 1011.8
20260507034304 0 176 0.0 0.0 0.00 0.56 0.33 88 1011.8
20260507032306 0 176 0.0 1.6 0.00 0.58 0.33 86 1011.8
20260507031305 1 176 0.0 0.0 0.00 0.58 0.33 85 1011.8
20260507030804 1 176 0.0 0.0 0.00 0.58 0.33 85 1011.8
20260507025306 1 176 0.0 0.0 0.00 0.61 0.33 82 1011.8
20260507023305 2 166 0.0 3.2 0.00 0.66 0.33 79 1011.8
20260507022804 2 166 1.6 3.2 0.00 0.66 0.33 78 1011.8
20260507022306 2 166 0.0 3.2 0.00 0.69 0.33 78 1011.8
20260507020805 2 166 1.6 4.8 0.00 0.79 0.33 75 1011.8
20260507020304 3 166 1.6 4.8 0.00 0.84 0.33 74 1011.8
20260507015306 3 157 3.2 8.0 0.00 0.94 0.33 73 1011.8
20260507014805 3 170 3.2 9.7 0.00 0.97 0.33 73 1011.8
20260507013305 3 172 6.4 11.3 0.00 1.04 0.33 71 1015.7
20260507012306 4 175 8.0 11.3 0.00 1.04 0.33 71 1015.7
20260507011305 4 142 6.4 9.7 0.00 1.04 0.33 69 1015.7
20260507010805 4 160 4.8 12.9 0.00 1.04 0.33 69 1015.7
20260507005805 4 171 8.0 14.5 0.00 1.04 0.33 68 1015.7
20260507005306 4 157 3.2 9.7 0.00 1.07 0.33 68 1015.7
20260507004304 4 152 9.7 14.5 0.00 1.07 0.33 68 1015.7
20260507003805 4 156 3.2 12.9 0.00 1.07 0.33 68 1015.7
20260507002805 4 174 9.7 19.3 0.00 1.07 0.33 69 1015.7
20260507002306 5 166 9.7 14.5 0.00 1.07 0.33 69 1015.7
20260507001805 5 157 4.8 9.7 0.00 1.07 0.33 69 1015.7
20260507001304 5 162 8.0 12.9 0.00 1.07 0.33 69 1015.7
20260507000804 5 182 11.3 14.5 0.00 1.07 0.33 68 1015.7
20260506235805 4 171 6.4 9.7 0.00 1.07 0.33 68 1015.7
20260506235306 4 184 6.4 11.3 0.00 1.07 0.33 68 1015.7
20260506234304 4 130 6.4 11.3 0.00 1.07 0.33 71 1015.7
20260506233804 4 190 6.4 16.1 0.00 1.07 0.33 69 1015.7
20260506233305 4 173 9.7 14.5 0.00 1.07 0.33 69 1015.7
20260506232805 5 229 6.4 11.3 0.00 1.07 0.33 70 1015.7
20260506231805 4 225 3.2 12.9 0.00 1.07 0.33 68 1015.7
20260506230805 5 173 8.0 14.5 0.00 1.07 0.33 71 1015.7
20260506225305 4 184 8.0 11.3 0.00 1.07 0.33 73 1015.7
20260506224305 3 147 8.0 12.9 0.00 1.09 0.33 73 1015.7
20260506223806 4 167 11.3 14.5 0.00 1.12 0.33 73 1015.7
20260506222306 3 221 4.8 11.3 0.00 1.12 0.33 74 1015.7
20260506220304 3 211 1.6 4.8 0.00 1.14 0.33 80 1015.7
20260506215805 3 170 1.6 8.0 0.00 1.14 0.33 80 1015.7
20260506215306 2 220 4.8 8.0 0.00 1.14 0.33 80 1015.7
20260506213805 3 160 4.8 11.3 0.00 1.19 0.33 82 1015.7
20260506213305 2 184 0.0 3.2 0.00 1.19 0.33 82 1015.7
20260506205306 1 184 3.2 4.8 0.00 1.30 0.33 83 1015.7
20260506204304 1 200 1.6 4.8 0.00 1.30 0.33 84 1015.7
20260506203305 1 136 3.2 9.7 0.00 1.30 0.33 84 1015.7
20260506202804 1 189 3.2 4.8 0.00 1.32 0.33 84 1015.7
20260506202306 1 225 3.2 4.8 0.00 1.32 0.33 81 1015.7
20260506201805 2 315 1.6 4.8 0.00 1.32 0.33 83 1015.7
20260506200804 1 319 1.6 3.2 0.00 1.35 0.33 83 1015.7
20260506193305 1 5 3.2 8.0 0.00 1.35 0.33 88 1015.7
20260506192306 1 350 1.6 8.0 0.00 1.35 0.33 86 1015.7